Location: Auckland
(36.8670°S, 174.7670°E)
Time: 14:16:45
(UTC+13:00)

Transit 2A - All Passes

Search period start: 15 October 2019 00:00
Search period end: 25 October 2019 00:00
Orbit: 600 x 959 km, 66.7° (Epoch: 14 October)

Date Brightness Start Highest point End Pass type
(mag) Time Alt. Az. Time Alt. Az. Time Alt. Az.
15 Oct - 08:26:13 10° NE 08:29:21 17° ENE 08:32:43 10° ESE daylight
15 Oct - 10:06:59 10° NW 10:11:54 54° WSW 10:17:26 10° SSE daylight
15 Oct - 17:13:46 10° S 17:17:26 16° SE 17:21:05 10° E daylight
15 Oct - 18:55:16 10° SSW 19:01:41 78° ESE 19:08:00 10° NNE daylight
15 Oct - 20:40:33 10° WSW 20:44:12 16° WNW 20:47:49 10° NW visible
16 Oct - 07:54:47 10° ENE 07:55:34 10° E 07:56:22 10° E daylight
16 Oct - 09:32:44 10° NNW 09:37:44 81° WSW 09:43:23 10° SSE daylight
16 Oct - 11:19:33 10° WSW 11:22:02 13° SW 11:24:37 10° SSW daylight
16 Oct - 16:40:51 10° SSE 16:42:52 11° SE 16:44:53 10° ESE daylight
16 Oct - 18:21:14 10° SSW 18:27:30 56° ESE 18:33:42 10° NE daylight
16 Oct - 20:05:26 10° SW 20:10:20 24° WNW 20:15:10 10° NNW visible
17 Oct - 08:58:43 10° NNW 09:03:39 68° ENE 09:09:12 10° SSE daylight
17 Oct - 10:43:57 10° W 10:47:31 18° SW 10:51:21 10° S daylight
17 Oct - 17:47:17 10° SSW 17:53:15 40° SE 17:59:11 10° NE daylight
17 Oct - 19:30:45 10° SW 19:36:25 34° WNW 19:41:58 10° N daylight
18 Oct - 08:24:56 10° N 08:29:38 44° ENE 08:34:54 10° SE daylight
18 Oct - 10:08:51 10° WNW 10:13:06 25° SW 10:17:44 10° S daylight
18 Oct - 17:13:26 10° S 17:18:56 30° SE 17:24:25 10° ENE daylight
18 Oct - 18:56:19 10° SW 19:02:26 49° WNW 19:08:26 10° N daylight
19 Oct - 07:51:27 10° NNE 07:55:43 29° ENE 08:00:23 10° SE daylight
19 Oct - 09:34:04 10° WNW 09:38:45 35° SW 09:43:56 10° SSE daylight
19 Oct - 16:39:42 10° S 16:44:33 22° SE 16:49:24 10° E daylight
19 Oct - 18:22:01 10° SSW 18:28:23 70° WNW 18:34:37 10° NNE daylight
20 Oct - 07:18:22 10° NNE 07:21:51 19° ENE 07:25:34 10° ESE daylight
20 Oct - 08:59:32 10° NW 09:04:29 50° WSW 09:10:01 10° SSE daylight
20 Oct - 16:06:10 10° S 16:10:06 17° SE 16:14:01 10° E daylight
20 Oct - 17:47:52 10° SSW 17:54:17 84° ESE 18:00:36 10° NNE daylight
20 Oct - 19:33:29 10° WSW 19:36:44 14° WNW 19:39:57 10° NW daylight
21 Oct - 06:46:12 10° ENE 06:48:02 12° E 06:49:56 10° E daylight
21 Oct - 08:25:14 10° NNW 08:30:18 74° WSW 08:36:00 10° SSE daylight
21 Oct - 10:12:26 10° WSW 10:14:41 12° SW 10:17:01 10° SSW daylight
21 Oct - 15:33:03 10° SSE 15:35:34 12° SE 15:38:05 10° ESE daylight
21 Oct - 17:13:47 10° SSW 17:20:08 60° ESE 17:26:21 10° NE daylight
21 Oct - 18:58:12 10° WSW 19:02:53 22° WNW 19:07:28 10° NNW daylight
22 Oct - 07:51:10 10° NNW 07:56:11 75° ENE 08:01:51 10° SSE daylight
22 Oct - 09:36:41 10° W 09:40:10 17° SW 09:43:51 10° S daylight
22 Oct - 16:39:49 10° SSW 16:45:54 43° SE 16:51:53 10° NE daylight
22 Oct - 18:23:27 10° SW 18:28:59 31° WNW 18:34:22 10° NNW daylight
23 Oct - 07:17:19 10° N 07:22:10 49° ENE 07:27:34 10° SE daylight
23 Oct - 09:01:31 10° W 09:05:43 23° SW 09:10:17 10° S daylight
23 Oct - 16:05:57 10° S 16:11:36 32° SE 16:17:10 10° ENE daylight
23 Oct - 17:48:58 10° SW 17:55:01 45° WNW 18:00:54 10° N daylight
24 Oct - 06:43:46 10° N 06:48:13 32° ENE 06:53:07 10° SE daylight
24 Oct - 08:26:41 10° WNW 08:31:21 32° SW 08:36:30 10° S daylight
24 Oct - 15:32:12 10° S 15:37:14 24° SE 15:42:13 10° E daylight
24 Oct - 17:14:38 10° SSW 17:21:00 65° WNW 17:27:09 10° NNE daylight
